Location: Newark
(26.9047°N, 51.5475°E)
Time: 13:59:46
(UTC+00:00)

Hubble Space Telescope - Visible Passes

Search period start: 14 December 2019 00:00
Search period end: 24 December 2019 00:00
Orbit: 536 x 540 km, 28.5° (Epoch: 14 December)

Date Brightness Start Highest point End Pass type
(mag) Time Alt. Az. Time Alt. Az. Time Alt. Az.
14 Dec 4.0 00:27:28 11° ESE 00:27:28 11° ESE 00:27:49 10° ESE visible
14 Dec 1.4 02:02:50 15° WSW 02:06:04 54° SSE 02:10:07 10° E visible
15 Dec 1.0 01:53:22 27° WSW 01:55:28 66° SSE 01:59:34 10° E visible
16 Dec 0.7 01:43:46 47° WSW 01:44:51 78° SSE 01:49:00 10° E visible
17 Dec 0.6 01:34:04 80° WSW 01:34:17 89° SSE 01:38:26 10° E visible
18 Dec 1.0 01:24:15 65° ENE 01:24:15 65° ENE 01:27:51 10° E visible
19 Dec 1.8 01:14:23 43° ENE 01:14:23 43° ENE 01:17:16 10° E visible
19 Dec 0.8 02:50:19 10° W 02:54:27 77° N 02:58:35 10° E visible
20 Dec 2.5 01:04:28 30° ENE 01:04:28 30° ENE 01:06:42 10° E visible
20 Dec 0.8 02:39:48 10° W 02:43:52 85° N 02:48:02 10° E visible
21 Dec 3.0 00:54:31 22° ENE 00:54:31 22° ENE 00:56:08 10° E visible
21 Dec 0.7 02:29:51 15° W 02:33:17 86° SSW 02:37:27 10° ESE visible
22 Dec 3.5 00:44:33 17° E 00:44:33 17° E 00:45:34 10° E visible
22 Dec 0.8 02:19:53 20° W 02:22:42 75° SSW 02:26:50 10° ESE visible
23 Dec 3.9 00:34:35 13° E 00:34:35 13° E 00:35:01 10° E visible
23 Dec 1.0 02:09:55 26° W 02:12:06 63° SSW 02:16:11 10° ESE visible
